1504911600.79,39180,15.94,73632.8,4.07,-27.07,-27.07,0,*7D
1504911602.02,39181,15.94,73632.3,4.07,-27.07,-27.23,0,*7A
1504911603.25,39182,15.94,73634.5,4.07,-27.07,-27.23,0,*79
1504911604.48,39183,15.94,73638.8,4.07,-27.23,-27.29,0,*74
1504911605.68,39184,15.94,73636.3,4.07,-27.13,-27.29,0,*70
1504911606.92,39185,15.94,73638.8,4.07,-27.23,-27.29,0,*72
1504911608.19,39186,15.94,73638.0,4.09,-27.23,-27.35,0,*72
1504911609.45,39187,15.94,73642.3,4.09,-27.39,-27.55,0,*7E
1504911610.72,39188,15.94,73642.8,4.09,-27.39,-27.39,0,*7B
1504911611.97,39189,15.94,73642.5,4.09,-27.39,-27.51,0,*74
1504911613.23,39190,15.94,73638.5,4.09,-27.39,-27.51,0,*7C
1504911614.5,39191,16.0,73638.5,4.09,-27.35,-27.39,0,*7F
1504911615.75,39192,15.94,73632.0,4.11,-27.39,-27.39,0,*79
1504911616.98,39193,15.94,73634.0,4.09,-27.55,-27.51,0,*75
1504911618.21,39194,15.94,73634.8,4.07,-27.61,-27.55,0,*7F
1504911619.41,39195,16.0,73634.5,4.07,-27.55,-27.55,0,*79
1504911620.66,39196,15.94,73626.5,4.07,-27.45,-27.39,0,*71
1504911621.89,39197,15.94,73624.8,4.07,-27.23,-27.13,0,*78
1504911623.11,39198,15.94,73622.3,4.07,-27.45,-27.55,0,*75
1504911624.37,39199,15.94,73632.3,4.07,-27.61,-27.61,0,*75
1504911625.59,39200,15.94,73632.3,4.07,-27.55,-27.45,0,*77
1504911626.8,39201,15.94,73634.5,4.07,-27.29,-27.13,0,*7E
1504911628.0,39202,15.94,73628.3,4.07,-27.13,-27.13,0,*74
1504911629.22,39203,15.94,73630.0,4.07,-27.23,-27.13,0,*76
1504911630.5,39204,15.94,73634.5,4.09,-27.23,-27.23,0,*7C
1504911631.77,39205,15.94,73630.8,4.09,-27.19,-27.23,0,*74
1504911632.96,39206,15.94,73620.5,4.07,-27.55,-27.55,0,*70
1504911634.2,39207,15.94,73628.3,4.07,-27.61,-27.55,0,*76
1504911635.43,39208,15.94,73620.3,4.07,-27.55,-27.61,0,*79
1504911636.66,39209,15.94,73624.8,4.07,-27.29,-27.39,0,*7E
1504911637.88,39210,15.94,73624.3,4.07,-27.45,-27.55,0,*76
1504911639.11,39211,15.94,73620.0,4.07,-27.55,-27.61,0,*71
1504911640.36,39212,15.94,73626.3,4.05,-27.55,-27.61,0,*70
1504911641.62,39213,15.94,73630.8,4.05,-27.61,-27.71,0,*77
1504911642.85,39214,15.94,73620.3,4.07,-27.45,-27.55,0,*72
1504911644.05,39215,15.94,73624.5,4.07,-27.55,-27.71,0,*74
1504911645.34,39216,15.94,73634.5,4.05,-27.61,-27.61,0,*73
1504911646.61,39217,15.94,73620.0,4.05,-27.45,-27.45,0,*72
1504911647.87,39218,15.94,73622.3,4.05,-27.61,-27.55,0,*7A
1504911649.13,39219,15.94,73626.0,4.07,-27.61,-27.61,0,*7E
1504911650.36,39220,15.94,73608.0,4.05,-27.55,-27.71,0,*70
1504911651.62,39221,15.94,73618.8,4.05,-27.61,-27.71,0,*76
1504911652.88,39222,15.94,73626.3,4.05,-27.55,-27.61,0,*73
1504911654.13,39223,15.94,73628.0,4.05,-27.61,-27.71,0,*74
1504911655.36,39224,15.94,73630.0,4.05,-27.77,-27.77,0,*72
1504911656.58,39225,15.94,73620.3,4.03,-27.77,-27.83,0,*7E
1504911657.83,39226,16.0,73634.8,4.03,-27.83,-27.83,0,*76
1504911659.05,39227,15.94,73624.3,4.03,-27.77,-27.83,0,*7C
1504911660.27,39228,15.94,73622.8,4.03,-27.77,-27.83,0,*73
1504911661.52,39229,15.94,73600.3,4.03,-27.83,-27.83,0,*79
1504911662.77,39230,15.94,73620.8,4.01,-27.99,-27.89,0,*72
1504911664.02,39231,15.94,73626.0,4.03,-27.83,-27.83,0,*70
1504911665.27,39232,15.94,73620.5,4.01,-27.99,-27.89,0,*70
1504911666.5,39233,15.94,73622.8,4.01,-27.89,-27.89,0,*70
1504911667.74,39234,15.94,73630.8,4.03,-27.83,-27.83,0,*75
1504911668.97,39235,15.94,73622.8,4.01,-27.71,-27.89,0,*71
1504911670.22,39236,15.94,73618.3,4.01,-27.89,-27.83,0,*7F
1504911671.45,39237,15.94,73628.5,4.01,-27.89,-27.89,0,*74
1504911672.65,39238,15.94,73620.5,3.99,-27.89,-27.93,0,*76
1504911673.85,39239,15.94,73618.0,3.99,-27.71,-27.71,0,*7C
1504911675.08,39240,15.94,73614.0,3.97,-27.89,-27.77,0,*7D
1504911676.3,39241,15.94,73624.0,3.97,-27.89,-27.77,0,*7C
1504911677.51,39242,15.94,73632.0,3.99,-27.71,-27.71,0,*70
1504911678.79,39243,15.94,73634.3,3.97,-27.61,-27.61,0,*7F
1504911680.0,39244,15.94,73624.5,3.99,-27.55,-27.55,0,*76
1504911681.23,39245,15.94,73614.5,3.97,-27.77,-27.71,0,*7F
1504911682.47,39246,15.94,73600.8,3.99,-27.83,-27.83,0,*74
1504911683.68,39247,15.94,73616.3,3.99,-27.55,-27.71,0,*73
1504911684.97,39248,15.94,73604.8,3.97,-27.61,-27.61,0,*74
1504911686.19,39249,15.94,73612.8,3.97,-27.71,-27.77,0,*73
1504911687.42,39250,15.94,73612.5,3.97,-27.77,-27.71,0,*7B
1504911688.65,39251,15.94,73622.0,3.97,-27.55,-27.55,0,*7C
1504911689.88,39252,15.94,73614.3,3.97,-27.71,-27.71,0,*7F
1504911691.14,39253,15.94,73622.0,3.95,-27.45,-27.45,0,*7C
1504911692.42,39254,15.94,73616.5,3.97,-27.45,-27.45,0,*79
1504911693.65,39255,15.94,73612.0,3.97,-27.55,-27.55,0,*78
1504911694.92,39256,15.94,73622.0,3.95,-27.39,-27.39,0,*79
1504911696.14,39257,15.94,73618.8,3.95,-27.77,-27.71,0,*7E
1504911697.36,39258,15.94,73620.0,3.95,-27.77,-27.77,0,*77
1504911698.61,39259,15.94,73616.3,3.95,-27.61,-27.55,0,*71
1504911699.82,39260,15.94,73620.3,3.95,-27.89,-27.77,0,*7D
1504911701.02,39261,15.94,73624.8,3.93,-27.77,-27.77,0,*7B
1504911702.21,39262,15.94,73626.8,3.93,-27.93,-27.77,0,*72
1504911703.41,39263,15.94,73630.8,3.93,-27.77,-27.67,0,*78
1504911704.61,39264,15.94,73634.3,3.93,-27.77,-27.67,0,*7F
1504911705.82,39265,15.94,73636.3,3.93,-27.83,-27.77,0,*74
1504911707.04,39266,15.94,73630.5,3.93,-27.67,-27.61,0,*7A
1504911708.26,39267,15.94,73630.5,3.93,-27.51,-27.45,0,*78
1504911709.5,39268,15.94,73630.0,3.93,-27.45,-27.23,0,*72
1504911710.74,39269,15.94,73624.5,3.93,-27.35,-27.45,0,*74
1504911711.97,39270,15.94,73630.0,3.97,-27.55,-27.51,0,*7B
1504911713.22,39271,15.94,73638.5,3.93,-27.61,-27.45,0,*7C
1504911714.46,39272,15.94,73636.5,3.93,-27.35,-27.35,0,*79
1504911715.68,39273,15.94,73634.0,3.93,-27.45,-27.29,0,*72
1504911716.9,39274,15.94,73648.8,3.95,-27.55,-27.55,0,*79
1504911718.12,39275,15.94,73642.0,3.93,-27.35,-27.29,0,*73
1504911719.37,39276,15.94,73644.3,3.95,-27.39,-27.29,0,*7A
1504911720.62,39277,15.94,73646.0,3.95,-27.55,-27.39,0,*70
1504911721.83,39278,15.94,73642.5,3.93,-27.51,-27.45,0,*76
1504911723.05,39279,15.94,73638.3,3.93,-27.35,-27.29,0,*7F
1504911724.27,39280,15.94,73634.8,3.93,-27.35,-27.29,0,*79
1504911725.47,39281,15.94,73626.5,3.93,-27.29,-27.13,0,*7C
1504911726.69,39282,15.94,73626.0,3.93,-27.23,-27.13,0,*75
1504911727.91,39283,15.94,73636.5,3.93,-27.29,-27.45,0,*7D
1504911729.13,39284,15.94,73634.3,3.93,-27.61,-27.77,0,*77
1504911730.33,39285,15.94,73636.0,3.93,-27.77,-27.77,0,*71
1504911731.55,39286,15.94,73642.8,3.93,-27.77,-27.83,0,*79
1504911732.76,39287,15.94,73636.8,3.93,-27.77,-27.83,0,*78
1504911733.99,39288,15.94,73636.5,3.93,-27.67,-27.83,0,*76
1504911735.18,39289,15.94,73628.0,3.93,-27.51,-27.67,0,*78
1504911736.42,39290,15.94,73632.5,3.93,-27.61,-27.67,0,*73
1504911737.66,39291,15.94,73632.8,3.89,-27.83,-27.99,0,*74
1504911738.87,39292,15.94,73634.5,3.89,-27.67,-27.89,0,*7C
1504911740.09,39293,15.94,73630.8,3.87,-27.55,-27.67,0,*72
1504911741.29,39294,15.94,73628.8,3.89,-27.55,-27.67,0,*7B
1504911742.49,39295,15.94,73636.8,3.89,-27.51,-27.55,0,*7F
1504911743.7,39296,15.94,73642.5,3.89,-27.55,-27.67,0,*79
1504911744.95,39297,15.94,73640.8,3.89,-27.39,-27.39,0,*79
1504911746.15,39298,15.94,73630.3,3.89,-27.51,-27.67,0,*73
1504911747.4,39299,15.94,73636.5,3.89,-27.39,-27.39,0,*77
1504911748.63,39300,15.94,73630.8,3.89,-27.29,-27.35,0,*7B
1504911749.9,39301,15.94,73636.3,3.87,-27.35,-27.39,0,*75
1504911751.13,39302,15.94,73626.5,3.89,-27.29,-27.35,0,*79
1504911752.38,39303,15.94,73622.5,3.89,-27.35,-27.35,0,*75
1504911753.61,39304,15.94,73634.8,3.89,-27.35,-27.51,0,*70
1504911754.83,39305,15.94,73638.5,3.89,-27.19,-27.29,0,*70
1504911756.03,39306,15.94,73632.0,3.89,-27.13,-27.03,0,*71
1504911757.22,39307,15.94,73634.0,3.93,-27.13,-27.13,0,*7A
1504911758.47,39308,15.94,73634.3,3.89,-27.35,-27.19,0,*70
1504911759.69,39309,15.94,73634.5,3.89,-27.19,-27.13,0,*75
1504911760.91,39310,15.94,73638.5,3.89,-27.35,-27.29,0,*7A
1504911762.14,39311,15.94,73634.3,3.89,-27.51,-27.35,0,*74
1504911763.39,39312,15.94,73630.8,3.89,-27.39,-27.39,0,*75
1504911764.64,39313,15.94,73638.3,3.89,-27.35,-27.39,0,*78
1504911765.86,39314,15.94,73638.0,3.89,-27.39,-27.51,0,*7D
1504911767.06,39315,15.94,73632.5,3.89,-27.13,-27.13,0,*72
1504911768.3,39316,15.94,73622.0,3.89,-27.19,-27.19,0,*71
1504911769.52,39317,15.94,73642.3,3.89,-27.35,-27.51,0,*72
1504911770.77,39318,15.94,73632.5,3.89,-27.35,-27.35,0,*7F
1504911772.0,39319,15.94,73642.8,3.93,-27.07,-26.97,0,*7D
1504911773.22,39320,15.94,73644.0,3.93,-26.93,-27.07,0,*73
1504911774.42,39321,15.94,73642.5,3.93,-27.07,-27.13,0,*7B
1504911775.62,39322,15.94,73634.5,3.93,-27.07,-27.07,0,*7D
1504911776.88,39323,15.94,73634.5,3.95,-27.19,-27.23,0,*73
1504911778.08,39324,15.94,73642.0,3.93,-27.13,-27.29,0,*72
1504911779.27,39325,15.94,73638.0,3.89,-27.13,-27.13,0,*71
1504911780.5,39326,15.94,73638.8,3.93,-26.93,-27.07,0,*75
1504911781.75,39327,15.94,73638.0,3.93,-26.97,-26.97,0,*78
1504911783.02,39328,15.94,73642.3,3.95,-27.23,-27.19,0,*78
1504911784.24,39329,15.94,73644.5,3.93,-27.23,-27.29,0,*7C
1504911785.46,39330,15.94,73642.8,3.93,-27.29,-27.45,0,*74
1504911786.66,39331,15.94,73644.8,3.93,-27.07,-27.07,0,*7F
1504911787.91,39332,15.94,73638.3,3.93,-26.93,-26.97,0,*78
1504911789.13,39333,15.94,73638.3,3.95,-27.03,-27.07,0,*7F
1504911790.35,39334,15.94,73634.5,3.93,-26.93,-27.07,0,*76
1504911791.6,39335,15.94,73632.8,3.93,-26.77,-26.93,0,*71
1504911792.85,39336,15.94,73632.3,3.93,-26.81,-26.93,0,*7B
1504911794.1,39337,15.94,73634.3,3.95,-26.77,-26.87,0,*70
1504911795.35,39338,15.94,73632.5,3.93,-26.77,-26.93,0,*7C
1504911796.59,39339,15.94,73626.8,3.95,-26.93,-27.07,0,*7D
1504911797.81,39340,15.94,73628.5,3.93,-27.13,-27.23,0,*7A
1504911799.06,39341,15.94,73638.3,3.95,-27.23,-27.29,0,*74
1504911800.33,39342,15.94,73652.3,3.95,-27.39,-27.45,0,*76
1504911801.53,39343,15.94,73646.0,3.93,-27.29,-27.03,0,*72
1504911802.78,39344,15.94,73640.0,3.95,-26.93,-27.03,0,*73
1504911804.0,39345,15.94,73636.0,3.93,-26.97,-27.13,0,*71
1504911805.19,39346,15.94,73632.5,3.93,-27.13,-27.13,0,*7F
1504911806.39,39347,15.94,73640.0,3.93,-27.03,-27.07,0,*7A
1504911807.59,39348,15.94,73642.0,3.93,-27.07,-27.07,0,*71
1504911808.84,39349,15.94,73644.0,3.95,-27.07,-27.19,0,*79
1504911810.06,39350,15.94,73642.5,3.95,-27.03,-27.07,0,*7A
1504911811.28,39351,15.94,73648.0,3.95,-27.07,-27.07,0,*7F
1504911812.55,39352,15.94,73640.5,3.95,-27.23,-27.19,0,*75
1504911813.79,39353,15.94,73638.3,3.93,-27.23,-27.23,0,*7B
1504911815.06,39354,15.94,73638.3,3.95,-27.19,-27.19,0,*7A
1504911816.28,39355,15.94,73640.5,3.95,-27.03,-27.03,0,*7B
1504911817.5,39356,15.94,73638.5,3.95,-27.13,-27.07,0,*7D
1504911818.73,39357,15.94,73638.8,3.95,-27.07,-27.07,0,*79
1504911819.95,39358,15.94,73640.3,3.95,-27.07,-27.07,0,*76
1504911821.22,39359,15.94,73634.8,3.95,-27.23,-27.19,0,*7E
1504911822.49,39360,15.94,73640.0,3.95,-27.23,-27.19,0,*74
1504911823.74,39361,15.94,73634.5,3.95,-27.23,-27.29,0,*76
1504911824.96,39362,15.94,73636.5,3.93,-27.45,-27.51,0,*7C
1504911826.18,39363,15.94,73636.5,3.93,-27.51,-27.61,0,*7B
1504911827.41,39364,15.94,73638.5,3.93,-27.35,-27.45,0,*78
1504911828.64,39365,15.94,73638.5,3.93,-27.45,-27.29,0,*74
1504911829.88,39366,15.94,73636.3,3.93,-27.45,-27.45,0,*7D
1504911831.12,39367,15.94,73638.5,3.93,-27.35,-27.35,0,*7C
1504911832.37,39368,15.94,73642.0,3.93,-27.45,-27.45,0,*73
1504911833.6,39369,15.94,73636.8,3.93,-27.35,-27.45,0,*75
1504911834.85,39370,15.94,73642.8,3.93,-27.61,-27.61,0,*7A
1504911836.11,39371,15.94,73644.3,3.93,-27.61,-27.61,0,*7B
1504911837.3,39372,15.94,73644.0,3.93,-27.51,-27.51,0,*78
1504911838.5,39373,15.94,73640.8,3.89,-27.51,-27.55,0,*76
1504911839.7,39374,15.94,73642.0,3.89,-27.51,-27.55,0,*71
1504911840.9,39375,15.94,73636.0,3.89,-27.55,-27.67,0,*75
1504911842.12,39376,15.94,73638.8,3.87,-27.51,-27.51,0,*79
1504911843.37,39377,15.94,73634.8,3.87,-27.35,-27.29,0,*75
1504911844.6,39378,15.94,73634.3,3.87,-27.29,-27.29,0,*77
1504911845.84,39379,15.94,73630.8,3.89,-27.19,-27.19,0,*78
1504911847.1,39380,15.94,73634.8,3.87,-27.29,-27.39,0,*71
1504911848.33,39381,15.94,73640.8,3.87,-27.29,-27.29,0,*71
1504911849.58,39382,15.94,73634.0,3.87,-27.29,-27.19,0,*71
1504911850.79,39383,15.94,73634.3,3.87,-27.13,-27.13,0,*73
1504911852.06,39384,15.94,73632.3,3.87,-27.35,-27.35,0,*74
1504911853.3,39385,15.94,73634.3,3.87,-27.29,-27.29,0,*75
1504911854.56,39386,15.94,73634.5,3.87,-27.35,-27.39,0,*7A
1504911855.83,39387,15.94,73630.5,3.87,-27.35,-27.35,0,*77
1504911857.1,39388,15.94,73628.3,3.87,-27.35,-27.39,0,*74
1504911858.35,39389,15.94,73612.3,3.87,-27.29,-27.39,0,*78
1504911859.59,39390,15.94,73620.3,3.87,-27.35,-27.51,0,*73
1504911860.81,39391,15.94,73632.3,3.87,-27.51,-27.55,0,*74
1504911862.06,39392,15.94,73628.5,3.87,-27.39,-27.55,0,*79
1504911863.3,39393,15.94,73632.3,3.87,-27.39,-27.51,0,*7C
1504911864.55,39394,15.94,73636.8,3.85,-27.35,-27.39,0,*7B
1504911865.79,39395,15.94,73628.8,3.85,-27.19,-27.23,0,*7F
1504911867.03,39396,15.94,73626.0,3.85,-27.19,-27.19,0,*75
1504911868.28,39397,15.94,73624.3,3.85,-27.23,-27.35,0,*73
1504911869.52,39398,15.94,73626.0,3.85,-27.19,-27.39,0,*79
1504911870.76,39399,15.94,73638.0,3.85,-27.19,-27.23,0,*73
1504911872.01,39400,15.94,73648.0,3.85,-27.23,-27.19,0,*74
1504911873.27,39401,15.94,73644.5,3.87,-27.19,-27.19,0,*7E
1504911874.49,39402,15.94,73638.8,3.87,-27.03,-27.03,0,*7D
1504911875.72,39403,15.94,73632.3,3.87,-27.03,-27.03,0,*7C
1504911876.94,39404,15.94,73632.0,3.87,-27.03,-27.13,0,*7A
1504911878.16,39405,15.94,73626.8,3.87,-27.03,-27.13,0,*7B
1504911879.4,39406,15.94,73624.0,3.87,-27.13,-27.19,0,*73
1504911880.64,39407,15.94,73624.8,3.87,-27.13,-27.19,0,*72
1504911881.91,39408,15.94,73630.3,3.87,-27.19,-27.19,0,*77
1504911883.16,39409,15.94,73628.3,3.87,-27.29,-27.19,0,*75
1504911884.37,39410,15.94,73626.5,3.87,-27.13,-27.13,0,*7E
1504911885.59,39411,15.94,73620.8,3.87,-27.13,-27.13,0,*7F
1504911886.79,39412,15.94,73630.3,3.89,-27.03,-27.13,0,*73
1504911888.02,39413,15.94,73622.3,3.89,-27.03,-27.19,0,*78
1504911889.26,39414,15.94,73622.0,3.87,-27.13,-27.19,0,*70
1504911890.48,39415,15.94,73624.5,3.89,-27.19,-27.13,0,*7F
1504911891.7,39416,15.94,73618.0,3.89,-27.13,-27.19,0,*7C
1504911892.92,39417,15.94,73622.8,3.89,-27.13,-27.19,0,*7D
1504911894.13,39418,15.94,73616.0,3.89,-27.29,-27.29,0,*78
1504911895.38,39419,15.94,73610.0,3.87,-27.29,-27.19,0,*74
1504911896.64,39420,15.94,73632.3,3.89,-27.39,-27.35,0,*7F
1504911897.86,39421,15.94,73636.5,3.89,-27.39,-27.51,0,*7C
1504911899.1,39422,15.94,73634.8,3.87,-27.39,-27.51,0,*71
1504911900.37,39423,15.94,73624.3,3.87,-27.35,-27.35,0,*7E
1504911901.62,39424,15.94,73638.0,3.87,-27.39,-27.51,0,*77
1504911902.89,39425,15.94,73638.8,3.87,-27.39,-27.39,0,*78
1504911904.16,39426,15.94,73642.8,3.87,-27.35,-27.19,0,*75
1504911905.39,39427,15.94,73638.0,3.87,-27.29,-27.29,0,*7A
1504911906.63,39428,15.94,73640.5,3.89,-27.19,-27.19,0,*7B
1504911907.87,39429,15.94,73632.3,3.87,-27.19,-27.13,0,*7E
1504911909.15,39430,15.94,73628.0,3.87,-26.97,-26.97,0,*7C
1504911910.4,39431,15.94,73624.8,3.89,-26.71,-26.81,0,*7C
1504911911.6,39432,15.94,73620.5,3.89,-27.03,-26.87,0,*7D
1504911912.81,39433,15.94,73622.3,3.89,-27.19,-27.13,0,*7B
1504911914.06,39434,15.94,73642.3,3.89,-27.39,-27.19,0,*74
1504911915.31,39435,15.94,73628.5,3.89,-27.19,-27.19,0,*77
1504911916.51,39436,15.88,73626.5,3.89,-27.13,-27.03,0,*75
1504911917.72,39437,15.94,73626.5,3.89,-27.19,-27.13,0,*7F
1504911918.93,39438,15.94,73626.8,3.89,-27.13,-27.03,0,*7B
1504911920.15,39439,15.94,73634.5,3.89,-27.13,-26.97,0,*76
1504911921.41,39440,15.94,73622.8,3.89,-26.81,-26.71,0,*7A
1504911922.64,39441,15.94,73618.8,3.89,-26.81,-26.65,0,*7E
1504911923.91,39442,15.94,73622.3,3.95,-26.93,-26.71,0,*76
1504911925.16,39443,15.94,73628.0,3.93,-26.93,-26.81,0,*7E
1504911926.4,39444,15.94,73624.5,3.95,-26.55,-26.61,0,*7B
1504911927.62,39445,15.94,73628.5,3.95,-26.61,-26.61,0,*7D
1504911928.86,39446,15.94,73632.0,3.95,-26.61,-26.55,0,*79
1504911930.08,39447,15.94,73628.5,3.95,-26.45,-26.45,0,*7F
1504911931.3,39448,15.94,73636.5,3.93,-26.77,-26.65,0,*75
1504911932.55,39449,15.94,73644.0,3.95,-26.87,-26.77,0,*7E
1504911933.79,39450,15.94,73642.3,3.95,-26.87,-26.77,0,*76
1504911935.04,39451,15.94,73632.8,3.95,-26.93,-26.87,0,*7D
1504911936.3,39452,15.94,73632.5,3.95,-26.71,-26.71,0,*7B
1504911937.55,39453,15.94,73640.8,3.95,-26.23,-26.13,0,*79
1504911938.79,39454,15.94,73636.0,3.95,-26.13,-26.07,0,*78
1504911940.0,39455,15.94,73636.5,3.99,-26.03,-25.87,0,*7F
1504911941.24,39456,15.94,73636.3,3.99,-26.03,-25.97,0,*7D
1504911942.5,39457,15.94,73644.0,3.99,-26.17,-26.17,0,*72
1504911943.7,39458,15.94,73646.3,3.99,-26.87,-26.87,0,*7D
1504911944.96,39459,15.94,73646.0,3.99,-26.81,-26.71,0,*73
1504911946.18,39460,15.94,73640.0,3.99,-26.23,-26.17,0,*71
1504911947.39,39461,15.94,73638.8,3.99,-26.49,-26.49,0,*77
1504911948.66,39462,15.94,73638.0,4.01,-26.55,-26.55,0,*72
1504911949.93,39463,15.94,73634.5,4.01,-26.71,-26.71,0,*73
1504911951.18,39464,15.94,73634.5,4.03,-26.93,-26.81,0,*75
1504911952.42,39465,15.94,73634.3,4.01,-27.03,-27.03,0,*75
1504911953.67,39466,15.94,73630.5,4.01,-27.13,-26.97,0,*7B
1504911954.93,39467,15.94,73622.5,4.01,-26.97,-26.87,0,*76
1504911956.18,39468,15.94,73624.3,4.01,-27.13,-26.97,0,*75
1504911957.46,39469,15.94,73624.3,4.01,-27.19,-27.35,0,*77
1504911958.74,39470,15.94,73628.5,4.01,-26.97,-26.81,0,*76
1504911960.01,39471,15.94,73630.0,4.01,-26.71,-26.71,0,*70
1504911961.29,39472,15.94,73630.3,4.01,-26.71,-26.71,0,*73
1504911962.55,39473,15.94,73634.3,4.01,-26.97,-26.87,0,*73
1504911963.83,39474,15.94,73634.5,4.01,-26.97,-26.97,0,*75
1504911965.1,39475,15.94,73626.3,4.01,-27.19,-27.19,0,*74
1504911966.37,39476,15.94,73624.5,4.01,-27.19,-27.19,0,*77
1504911967.65,39477,15.94,73624.8,4.01,-27.23,-27.23,0,*76
1504911968.92,39478,15.94,73620.5,4.01,-27.19,-27.23,0,*70
1504911970.17,39479,15.94,73620.3,4.01,-27.39,-27.51,0,*76
1504911971.4,39480,15.94,73612.0,4.01,-27.51,-27.55,0,*7A
1504911972.63,39481,15.94,73614.5,4.01,-27.55,-27.67,0,*7E
1504911973.86,39482,15.94,73612.0,4.01,-27.51,-27.67,0,*79
1504911975.08,39483,15.88,73612.5,4.01,-27.55,-27.55,0,*7D
1504911976.31,39484,15.88,73598.8,3.97,-27.55,-27.55,0,*72
1504911977.51,39485,15.94,73606.5,3.99,-27.51,-27.55,0,*79
1504911978.72,39486,15.94,73616.8,3.99,-27.51,-27.55,0,*7A
1504911979.94,39487,15.94,73608.8,3.97,-27.71,-27.77,0,*77
1504911981.15,39488,15.94,73614.5,3.99,-27.67,-27.71,0,*77
1504911982.36,39489,15.94,73614.0,3.99,-27.67,-27.55,0,*70
1504911983.65,39490,15.94,73630.3,3.97,-27.61,-27.61,0,*77
1504911984.92,39491,15.94,73634.0,3.97,-27.23,-27.19,0,*7F
1504911986.19,39492,15.94,73626.8,3.97,-26.55,-26.55,0,*75
1504911987.43,39493,15.94,73616.8,3.97,-26.45,-26.39,0,*7F
1504911988.66,39494,15.94,73598.3,3.97,-26.61,-26.61,0,*73
1504911989.89,39495,15.94,73606.8,3.99,-26.65,-26.71,0,*79
1504911991.12,39496,15.94,73606.3,3.99,-26.49,-26.55,0,*72
1504911992.34,39497,15.88,73608.8,3.99,-26.55,-26.49,0,*73
1504911993.61,39498,15.94,73614.5,4.01,-26.71,-26.71,0,*77
1504911994.89,39499,15.94,73614.5,4.01,-26.71,-26.71,0,*76
1504911996.14,39500,15.94,73608.0,4.03,-26.81,-26.93,0,*76
1504911997.39,39501,15.94,73610.5,4.01,-27.03,-26.97,0,*7A
1504911998.63,39502,15.94,73612.5,4.01,-27.03,-27.03,0,*75
1504911999.89,39503,15.94,73618.8,4.01,-26.97,-27.03,0,*78
1504912001.11,39504,15.94,73618.5,4.01,-27.13,-27.13,0,*73
1504912002.39,39505,15.94,73622.8,4.01,-27.23,-27.35,0,*75
1504912003.61,39506,15.94,73622.3,4.03,-27.19,-27.29,0,*70
1504912004.89,39507,15.88,73616.8,4.01,-27.23,-27.35,0,*77
1504912006.17,39508,15.94,73622.5,4.01,-27.23,-27.35,0,*78
1504912007.45,39509,15.94,73626.5,4.01,-27.23,-27.23,0,*7E
1504912008.72,39510,15.94,73626.8,4.01,-27.23,-27.19,0,*7F
1504912009.97,39511,15.94,73618.8,4.01,-27.19,-27.13,0,*7D
1504912011.2,39512,15.94,73612.8,4.01,-27.13,-27.03,0,*75
1504912012.43,39513,15.88,73618.0,4.01,-27.03,-27.03,0,*75
1504912013.65,39514,15.94,73612.5,4.01,-27.13,-27.13,0,*72
1504912014.9,39515,15.94,73606.5,4.01,-27.19,-27.13,0,*79
1504912016.14,39516,15.94,73610.3,4.01,-27.19,-27.13,0,*7A
1504912017.41,39517,15.94,73620.8,4.01,-27.19,-27.19,0,*71
1504912018.66,39518,15.88,73616.5,3.99,-27.19,-27.19,0,*78
1504912019.88,39519,15.94,73614.5,4.01,-27.13,-27.13,0,*7F
1504912021.11,39520,15.88,73612.8,4.01,-27.13,-27.03,0,*74
1504912022.34,39521,15.94,73608.8,4.01,-27.13,-27.13,0,*74
1504912023.61,39522,15.88,73616.5,4.01,-27.19,-27.35,0,*79
1504912024.89,39523,15.88,73614.5,4.01,-27.39,-27.39,0,*76
1504912026.16,39524,15.94,73628.5,4.01,-27.35,-27.39,0,*7D
1504912027.39,39525,15.88,73616.5,3.99,-27.19,-27.03,0,*7D
1504912028.65,39526,15.88,73616.0,3.99,-26.97,-26.97,0,*75
1504912029.9,39527,15.88,73614.3,3.97,-27.03,-26.93,0,*72
1504912031.14,39528,15.88,73604.5,3.99,-26.97,-26.87,0,*7A
1504912032.37,39529,15.94,73606.5,3.99,-26.87,-26.81,0,*7C
1504912033.6,39530,15.88,73602.3,3.99,-27.03,-26.97,0,*7E
1504912034.83,39531,15.94,73606.8,3.99,-27.03,-26.97,0,*7F
1504912036.06,39532,15.88,73608.8,3.99,-27.13,-26.97,0,*7D
1504912037.27,39533,15.94,73618.8,3.99,-27.13,-27.03,0,*70
1504912038.52,39534,15.88,73614.3,4.01,-27.03,-26.97,0,*7C
1504912039.79,39535,15.94,73618.3,4.01,-27.19,-27.19,0,*71
1504912041.0,39536,15.94,73620.3,3.99,-27.13,-27.03,0,*75
1504912042.22,39537,15.94,73628.5,3.99,-27.19,-27.13,0,*7F
1504912043.44,39538,15.88,73626.3,3.99,-27.19,-27.03,0,*71
1504912044.67,39539,15.94,73630.5,3.99,-27.19,-27.03,0,*70
1504912045.89,39540,15.94,73634.3,3.99,-27.19,-27.13,0,*7F
1504912047.09,39541,15.94,73640.5,3.99,-27.13,-27.13,0,*74
1504912048.32,39542,15.94,73636.3,3.99,-27.03,-26.97,0,*7B
1504912049.55,39543,15.88,73638.3,3.99,-27.03,-26.97,0,*7A
1504912050.83,39544,15.94,73632.3,3.97,-27.23,-27.23,0,*7F
1504912052.03,39545,15.88,73634.8,3.99,-27.13,-27.13,0,*70
1504912053.3,39546,15.94,73632.8,3.97,-27.19,-27.19,0,*7D
1504912054.53,39547,15.88,73632.0,3.99,-27.19,-27.03,0,*79
1504912055.75,39548,15.88,73632.5,3.99,-27.19,-27.13,0,*77
1504912057.0,39549,15.88,73630.3,3.99,-27.19,-27.19,0,*7C
1504912058.23,39550,15.94,73632.8,3.99,-27.03,-26.97,0,*78
1504912059.48,39551,15.88,73628.3,3.97,-26.93,-27.03,0,*73
1504912060.74,39552,15.94,73636.0,3.97,-27.03,-26.93,0,*70
1504912061.97,39553,15.88,73630.8,3.99,-27.03,-26.97,0,*7B
1504912063.21,39554,15.88,73630.0,3.99,-26.97,-27.03,0,*7C
1504912064.41,39555,15.88,73626.0,3.99,-27.13,-27.03,0,*70
1504912065.62,39556,15.88,73628.8,3.99,-27.03,-27.03,0,*72
1504912066.87,39557,15.88,73630.3,3.99,-27.19,-27.19,0,*73
1504912068.09,39558,15.94,73628.5,3.99,-27.23,-27.13,0,*7F
1504912069.34,39559,15.88,73628.8,3.99,-27.19,-27.19,0,*7D
1504912070.54,39560,15.94,73636.5,3.99,-27.13,-27.13,0,*77
1504912071.81,39561,15.94,73640.0,3.97,-27.19,-27.19,0,*78
1504912073.06,39562,15.88,73640.5,3.99,-27.19,-27.23,0,*7C
1504912074.32,39563,15.88,73636.0,3.99,-27.23,-27.35,0,*73
1504912075.57,39564,15.88,73632.3,3.99,-27.35,-27.23,0,*74
1504912076.8,39565,15.94,73632.0,3.97,-27.29,-27.29,0,*7C
1504912078.04,39566,15.88,73628.5,3.97,-27.29,-27.29,0,*7F
1504912079.3,39567,15.88,73632.5,3.97,-27.29,-27.39,0,*7F
1504912080.56,39568,15.94,73630.0,3.97,-27.23,-27.29,0,*7B
1504912081.82,39569,15.88,73634.0,3.97,-27.29,-27.39,0,*71
1504912083.1,39570,15.88,73626.5,3.97,-27.39,-27.39,0,*78
1504912084.38,39571,15.94,73634.5,3.97,-27.39,-27.39,0,*79
1504912085.63,39572,15.94,73626.3,3.99,-27.35,-27.35,0,*74
1504912086.88,39573,15.88,73626.3,3.99,-27.35,-27.35,0,*75
1504912088.14,39574,15.88,73622.0,3.97,-27.39,-27.29,0,*7D
1504912089.4,39575,15.88,73630.8,3.97,-27.29,-27.39,0,*7C
1504912090.65,39576,15.94,73628.0,3.99,-27.35,-27.35,0,*70
1504912091.91,39577,15.94,73630.0,3.97,-27.29,-27.45,0,*75
1504912093.17,39578,15.88,73634.3,3.97,-27.29,-27.39,0,*71
1504912094.45,39579,15.88,73638.3,3.97,-27.39,-27.35,0,*7D
1504912095.72,39580,15.94,73632.5,3.97,-27.23,-27.19,0,*7E
1504912096.96,39581,15.94,73630.0,3.97,-27.07,-27.03,0,*72
1504912098.19,39582,15.88,73620.0,3.97,-27.07,-27.03,0,*71
1504912099.39,39583,15.88,73632.5,3.99,-26.87,-26.87,0,*7A
1504912100.67,39584,15.88,73628.5,3.97,-26.93,-26.93,0,*73
1504912101.92,39585,15.88,73620.3,3.97,-26.87,-26.93,0,*77
1504912103.15,39586,15.88,73616.8,3.97,-26.87,-26.87,0,*71